Tracking 18987 objects as of 24-Feb-2018
HD Live streaming from Space Station
objects crossing your sky now

ORBCOMM FM 7

Track ORBCOMM FM 7 now!
10-day predictions
ORBCOMM FM 7 is classified as:


NORAD ID: 25119
Int'l Code: 1997-084H
Perigee: 767.8 km
Apogee: 772.2 km
Inclination: 45.0 °
Period: 100.1 minutes
Semi major axis: 7140 km
RCS: 0.4683 m2 (medium)
Launch date: December 23, 1997
Source: ORBCOMM (ORB)
Launch site: Pegasus launched from Eastern Range Air Space (ERAS)
aabbcc
Your satellite tracking list
Your tracking list is empty




NASA's NSSDC Master Catalog

Two Line Element Set (TLE):
1 25119U 97084H   18055.25329660 +.00000081 +00000-0 +72293-4 0  9994
2 25119 045.0161 112.3123 0003101 153.7069 206.3937 14.38687381056589
Source of the keplerian elements: AFSPC